Location: Poprad
(0.0000°N, 20.3000°E)
Time: 05:52:09
(UTC+01:00)

Daily predictions for brighter satellites

Satellite Brightness Start Highest point End
(mag) Time Altitude Azimuth Time Altitude Azimuth Time Altitude Azimuth
ARIANE 5 R/B 4.5 02:59:26 73° SW 03:01:10 80° S 09:01:08 10° E
BLOCK DM-SL R/B 4.4 03:30:21 76° WSW 03:31:11 86° S 04:05:14 10° E
BLOCK DM-SL R/B 4.4 03:30:22 76° WSW 03:31:11 86° S 04:05:14 10° E
BLOCK DM-SL R/B 4.4 03:30:22 76° WSW 03:31:12 86° S 04:05:13 10° E
Ariane H10+ 4.3 03:30:19 77° W 03:31:13 86° N 03:37:06 10° E
Cosmos 2322 Rocket 3.9 03:29:42 10° SSE 03:34:33 30° ESE 03:39:24 10° NE
Cosmos 1934 Rocket 4.5 03:29:49 10° S 03:35:56 57° E 03:42:07 10° NNE
ATLAS 3B R/B 4.1 03:41:32 24° S 03:41:32 24° S 03:44:15 10° S
ARIANE 44P R/B 4.2 03:44:00 39° NNE 03:44:00 39° NNE 03:46:22 10° ENE
NOSS 3-2 (A) 4.0 03:44:31 73° W 03:44:58 75° WSW 03:53:15 10° SSE
Milstar 3 3.7 03:45:55 45° NW 03:49:41 68° NNE 03:57:16 10° ESE
Atlas Centaur 2 1.9 04:03:36 60° ESE 04:03:36 60° ESE 04:07:16 10° ENE
ARIANE 5 R/B 3.1 04:05:47 31° E 04:05:47 31° E 04:06:56 10° E
ISS -1.7 04:06:56 27° ESE 04:06:56 27° ESE 04:09:23 10° ENE
ARIANE 5 R/B 3.1 04:08:30 46° NNE 04:08:30 46° NNE 04:10:24 10° ENE
SL-16 R/B 2.0 04:14:13 10° SSW 04:19:53 80° WNW 04:25:31 10° NNE
Delta 2 Rocket 4.2 04:19:43 39° WSW 04:22:35 74° NNW 04:30:49 10° ENE
Cosmos 967 Rocket 4.3 04:20:54 10° SSW 04:27:10 76° WNW 04:33:31 10° NNE
Cosmos 1825 3.6 04:33:37 24° SSW 04:33:37 24° SSW 04:35:25 10° SSW
CZ-2C R/B 3.0 04:28:45 10° NNE 04:33:53 63° ESE 04:38:59 10° S
Meteor 2-17 Rocket 4.4 04:30:41 10° SSW 04:36:34 55° W 04:42:26 10° N
ARIANE 5 DEB (SYLDA) 4.1 04:38:17 14° ESE 04:38:17 14° ESE 04:38:40 10° ESE
Cosmos 2242 Rocket 3.5 04:32:34 10° S 04:37:06 85° W 04:41:39 10° N
deb Ariane 4.5 04:36:41 23° SSW 04:37:30 27° S 04:40:13 10° ESE
Cosmos 1441 Rocket 3.1 04:33:51 10° S 04:37:47 76° W 04:41:44 10° N
CZ-3 R/B 4.5 04:30:49 11° NW 04:38:12 14° NNW 04:43:15 10° N
Aureole 1 Rocket 4.4 04:33:38 10° N 04:38:38 42° ENE 04:42:31 10° SE
Cosmos 1862 3.6 04:38:28 10° N 04:42:27 69° E 04:46:28 10° S
ARIANE 5 R/B 3.7 04:37:13 23° W 04:43:08 69° S 04:47:05 10° ESE
Cosmos 1605 Rocket 4.1 04:37:45 10° SSW 04:43:41 47° W 04:49:31 10° NNW
Cosmos 2227 Rocket 2.1 04:38:46 12° NNW 04:43:58 63° WSW 04:49:33 10° S
Meteor 1-28 Rocket 3.1 04:43:02 10° S 04:46:52 78° W 04:50:38 10° NNW
NOAA 6 4.1 04:42:17 10° N 04:47:13 51° WNW 04:52:11 10° SSW
Feng Yun 1-1 Rocket 4.3 04:41:51 10° N 04:47:28 60° WNW 04:53:15 10° SSW
USA 215 3.4 04:47:24 10° SE 04:53:57 76° NE 05:00:29 10° NNW
PAYLOAD A 4.3 04:51:38 10° N 04:56:19 43° WNW 05:01:14 10° SSW
SJ-12 4.3 04:52:58 10° NNE 04:57:02 66° ESE 05:01:06 10° S
Cosmos 2297 Rocket 2.3 04:52:14 10° NNW 04:57:43 54° WSW 05:03:12 10° S
CENTAUR R/B 3.2 04:52:17 10° NNW 05:00:46 72° WSW 05:08:53 10° SSE
Spelda 3.7 04:59:44 21° WSW 05:01:01 49° S 05:04:49 10° ESE
IDEFIX/ARIANE 42P 3.1 04:57:34 10° NNW 05:02:15 36° WNW 05:06:58 10° SW
Radarsat Rocket 4.3 04:57:09 10° N 05:03:13 54° WNW 05:10:05 10° SSW
ARIANE 5 R/B 3.9 05:01:54 13° WSW 05:06:54 62° S 06:00:35 10° E
Cosmos 1862 Rocket 4.1 05:04:35 10° SSW 05:08:32 35° W 05:12:29 10° NNW
ARIANE 44LP R/B 3.1 05:05:30 14° W 05:11:33 60° N 05:13:58 10° ENE
Cosmos 839 Rocket 4.4 05:06:26 10° SSW 05:12:31 72° ESE 05:19:20 10° NNE
Cosmos 1461 3.7 05:10:29 10° SW 05:13:52 27° WNW 05:17:23 10° N
Cosmos 1606 2.6 05:10:48 10° S 05:14:40 72° W 05:18:29 10° N
Cosmos 405 4.1 05:11:25 10° N 05:14:52 49° E 05:18:21 10° SSE
Cosmos 2061 Rocket 4.1 05:09:25 10° S 05:15:42 85° E 05:21:54 10° N
COSMO-SKYMED 1 2.9 05:11:52 10° SSE 05:16:10 69° ENE 05:20:28 10° N
Cosmos 1459 Rocket 3.9 05:11:01 10° S 05:17:08 75° W 05:23:20 10° N
Cosmos 2173 Rocket 4.0 05:11:35 10° S 05:17:53 75° W 05:24:05 10° N
Cosmos 2016 Rocket 4.4 05:12:07 10° S 05:18:17 71° E 05:24:32 10° N
Cosmos 2322 Rocket 3.4 05:14:31 10° WSW 05:18:18 18° WNW 05:22:06 10° NNW
Cosmos 1802 Rocket 4.1 05:12:33 10° S 05:19:00 90° ESE 05:25:25 10° N
Ariane H10 3.3 05:18:54 10° WNW 05:22:08 46° N 05:32:33 10° E
Lacrosse 4 Rocket 1.8 05:21:02 10° S 05:25:09 66° ESE 05:29:10 10° NNE
Cosmos 2360 Rocket 2.4 05:22:04 10° SSW 05:27:29 47° WNW 05:32:54 10° N
Okean 1-7 3.4 05:23:27 10° S 05:27:41 68° E 05:31:56 10° N
EPKM 4.1 05:22:34 10° WNW 05:29:30 31° SW 05:31:56 10° SSE
Cosmos 1733 Rocket 3.1 05:25:15 10° N 05:29:40 88° E 05:34:06 10° S
Lacrosse 5 rocket 4.2 05:27:27 10° NNE 05:29:50 15° ENE 05:32:16 10° E
ARIANE 5 R/B 2.8 05:27:45 10° W 05:38:15 72° N 05:40:49 10° E
